Wind_Speed
8 7 7 6 6 7 7 8 8 8 9 10 11 12 13 13 14 14 16 17 18 19 20 21 21 22 23 23 23 23 24 24 25 26 26 26 27 27 28 28 28 29 29
9 9 8 8 8 7 7 8 9 9 10 10 10 11 13 13 14 15 16 18 19 20 21 21 22 23 24 24 25 25 25 26 26 26 27 28 28 28 29 29 30 30 30
11 10 10 10 9 9 9 9 10 11 11 11 11 12 13 14 15 16 17 19 20 21 22 23 23 24 24 25 26 26 27 27 27 28 29 30 29 29 31 31 32 32 31
12 12 12 11 11 11 11 10 11 11 12 12 13 14 15 16 17 18 19 20 21 22 23 24 24 24 25 26 27 28 28 27 28 29 30 30 30 31 32 32 33 33 33
14 13 13 13 13 13 13 13 13 13 14 14 15 15 16 17 19 20 21 21 22 23 23 24 25 25 26 27 27 27 28 28 28 29 30 30 31 32 32 32 33 33 33
15 15 15 15 15 15 15 15 15 15 15 16 17 18 19 19 20 21 22 23 23 24 25 26 26 27 27 27 28 28 29 28 29 30 30 31 32 33 34 34 35 35 35
16 16 16 16 16 16 17 17 17 17 17 18 18 19 20 21 21 23 24 25 25 25 25 25 26 27 27 26 27 27 28 28 29 30 30 31 32 33 35 35 36 37 37
17 17 17 17 17 17 18 18 18 18 19 19 20 20 21 22 23 23 24 25 25 26 26 26 27 27 27 27 28 28 29 30 31 32 32 32 33 34 35 36 37 37 37
19 18 18 18 18 18 19 19 20 20 20 21 21 22 22 24 24 25 25 25 26 26 27 27 27 27 27 29 29 30 31 31 32 33 33 34 34 34 35 36 36 37 38
21 20 19 19 20 20 20 21 21 21 21 22 23 24 24 25 25 26 26 26 27 27 28 28 28 29 29 29 30 31 31 32 33 33 34 35 35 35 35 36 37 38 39
22 21 21 21 21 22 22 22 22 23 23 23 24 24 25 26 26 26 27 27 28 28 28 29 29 30 30 30 31 31 31 31 32 33 34 35 36 37 37 37 37 39 40
23 22 23 22 22 22 22 23 23 24 25 25 25 25 26 26 27 27 28 28 28 28 29 30 30 30 31 31 31 31 32 32 33 34 35 35 36 36 36 37 38 39 40
24 23 23 23 23 23 24 24 25 26 25 25 25 26 27 27 28 29 28 28 29 28 29 30 30 30 31 31 32 32 33 33 33 34 34 34 35 35 36 37 37 38 38
24 24 23 23 23 24 25 25 25 26 26 27 27 27 27 28 28 28 28 28 28 28 29 29 29 30 31 31 31 31 32 33 33 33 33 34 34 34 35 35 36 37 38
24 24 23 23 23 24 24 25 26 26 26 26 26 26 27 27 27 27 27 27 28 28 28 28 29 30 30 30 30 31 32 32 32 32 33 33 33 34 34 35 36 37 38
25 24 24 24 25 25 25 26 26 26 26 26 26 26 26 26 27 27 27 27 27 27 27 28 28 29 30 30 31 32 31 31 32 32 33 33 34 34 34 35 36 36 36
25 25 26 26 25 25 26 25 26 26 26 25 26 26 25 25 26 26 26 27 27 28 28 28 28 28 29 30 30 31 31 32 32 32 32 33 33 34 35 35 35 35 35
26 25 26 25 25 25 25 26 25 25 25 25 25 25 25 25 26 26 27 27 28 28 28 28 28 29 29 30 31 31 31 31 31 32 32 33 33 33 34 34 33 33 33
25 25 25 24 25 26 25 25 25 25 25 26 25 25 25 25 26 26 27 28 28 28 29 29 29 28 29 29 29 30 30 30 30 31 32 32 32 32 32 31 31 31 30
24 24 23 24 25 25 25 25 25 25 24 25 25 25 25 26 26 27 27 28 28 28 28 28 28 28 28 28 29 29 29 30 30 30 30 30 30 30 29 29 29 29 29
24 24 24 24 23 23 24 23 23 23 24 24 25 25 26 26 26 27 27 27 27 27 27 27 28 28 28 28 28 28 28 28 28 28 28 28 28 28 27 27 27 28 28
24 24 23 22 22 23 22 22 23 23 23 24 24 25 25 25 26 26 26 26 26 26 26 26 26 26 26 27 27 27 26 26 26 26 26 26 26 26 26 26 26 26 26
23 23 22 22 21 21 21 22 22 22 23 24 24 24 25 25 25 25 25 25 26 26 26 26 26 26 26 26 25 25 25 25 25 25 25 25 24 24 25 25 25 24 24
22 22 22 21 21 21 21 22 22 22 23 24 24 24 24 24 25 25 25 26 26 26 26 26 26 26 25 25 25 25 25 25 25 25 24 24 24 25 24 24 24 24 24
21 21 21 21 21 20 21 21 22 22 23 23 23 23 24 24 24 25 25 25 25 25 25 25 25 25 24 24 25 25 25 25 24 24 24 24 25 24 24 24 24 24 24
21 20 20 19 19 20 21 21 21 22 23 23 23 23 23 24 24 24 25 25 25 25 25 25 25 25 25 25 25 25 24 24 24 24 24 24 24 24 24 24 24 24 24
Wind_Direction
313 315 312 305 305 305 296 286 284 281 276 274 268 268 268 268 266 264 261 260 263 265 267 269 270 273 273 273 275 276 276 277 276 275 276 276 276 276 278 279 279 278 279
306 305 305 303 300 298 299 294 286 286 283 279 277 273 271 270 269 268 266 266 267 269 271 272 274 274 273 273 275 277 278 278 277 275 276 278 279 279 279 279 281 282 281
300 299 299 297 295 295 293 295 292 287 286 284 282 279 277 277 275 273 272 271 272 273 273 274 275 277 276 275 276 278 279 278 278 276 276 277 278 279 280 280 281 282 281
298 296 296 294 291 291 293 294 294 294 293 287 284 282 281 279 279 278 278 277 276 275 275 276 276 277 276 277 278 278 278 278 277 278 277 277 279 280 281 282 283 283 282
295 295 296 295 291 289 291 293 294 295 295 290 285 285 283 282 280 281 281 280 279 278 278 279 280 279 278 279 281 280 279 280 280 280 279 279 280 281 281 283 283 282 282
293 292 294 294 292 289 289 290 290 289 289 290 287 285 285 285 283 283 283 282 281 280 281 282 282 282 281 280 281 283 283 283 283 283 282 281 282 282 283 283 284 284 285
293 291 289 290 290 288 287 288 288 288 288 289 289 288 287 286 285 284 284 284 282 283 282 282 283 285 285 285 284 285 286 286 286 286 285 284 283 283 283 284 284 285 285
294 291 290 287 286 287 289 287 286 286 287 289 290 291 290 290 288 287 286 285 284 284 284 285 286 286 287 287 285 286 286 285 285 286 287 287 286 285 285 285 284 285 285
292 289 289 286 284 285 286 288 286 286 286 287 289 291 291 290 290 289 287 287 285 286 286 287 287 289 289 289 289 289 288 287 286 286 286 286 287 287 287 287 286 286 287
293 288 288 286 285 284 285 287 287 288 288 287 288 289 291 293 292 291 290 289 288 288 288 288 287 288 290 290 290 290 290 289 289 289 289 288 288 288 289 289 288 287 287
294 291 289 286 286 286 285 286 288 288 289 289 289 290 292 294 294 294 291 291 290 289 288 288 287 287 289 290 290 290 291 291 291 292 292 291 291 290 290 290 289 288 289
291 290 288 286 286 285 286 287 288 289 290 289 289 291 293 294 294 295 294 292 292 290 288 288 289 289 290 291 291 291 291 292 292 293 292 292 293 293 292 291 291 292 292
287 287 286 285 286 286 286 287 287 288 288 289 289 291 293 294 295 295 296 294 292 290 289 290 290 290 291 290 290 291 292 293 294 294 293 293 293 293 294 294 294 295 295
285 284 284 285 286 288 287 287 289 289 288 289 291 291 292 294 295 296 296 295 294 293 293 292 291 290 290 290 291 293 293 294 294 294 294 294 294 295 295 296 297 297 297
283 281 282 283 286 288 289 289 290 290 290 290 292 294 295 296 296 296 297 296 297 297 296 295 294 293 293 293 293 294 295 295 295 295 296 297 298 298 299 299 300 300 300
280 280 281 284 285 287 289 290 291 291 291 292 293 295 296 297 297 297 298 299 300 298 298 296 295 296 296 296 296 296 296 296 297 298 299 299 300 301 301 301 301 302 302
278 279 281 283 285 287 289 290 291 291 292 293 295 296 297 297 298 298 298 299 299 300 299 299 299 300 300 299 300 300 299 299 300 300 301 301 301 302 302 302 303 303 304
277 280 281 282 284 287 289 290 290 291 292 293 295 296 296 296 297 297 298 299 299 299 299 300 300 301 301 302 302 302 301 301 301 301 302 302 302 303 303 304 304 304 304
277 279 281 283 285 286 288 289 290 292 292 294 295 296 296 297 297 297 299 300 300 300 300 301 301 301 302 303 302 302 302 302 302 302 303 303 304 304 304 305 306 306 306
278 280 283 284 284 285 287 289 290 291 293 295 296 296 297 297 298 299 300 301 302 303 303 303 303 303 304 304 303 304 304 304 303 304 305 305 306 306 307 307 308 309 309
278 281 284 286 286 287 288 290 291 293 296 297 298 298 299 300 300 301 302 302 303 304 304 305 305 305 305 305 305 305 305 306 307 308 308 308 308 309 310 310 311 311 312
280 283 284 286 288 289 289 291 293 295 296 299 300 301 301 301 301 302 303 304 305 305 306 306 307 308 308 308 308 309 310 311 312 312 312 312 312 312 312 312 313 314 314
281 283 284 287 287 288 290 293 294 295 296 298 300 301 301 302 304 305 305 306 306 307 307 307 307 308 309 310 311 312 313 314 314 314 315 315 316 316 316 317 317 317 316
278 279 282 285 287 287 290 293 294 296 298 299 300 300 301 303 304 306 307 307 307 307 307 308 309 310 310 310 311 311 312 313 314 315 315 315 316 317 318 318 318 318 318
278 280 283 285 287 287 289 293 295 297 299 300 300 301 303 304 305 307 308 308 309 309 309 309 310 310 311 311 312 312 313 314 315 316 316 316 317 317 318 318 318 318 318
279 280 281 283 286 288 289 293 296 299 300 301 301 302 304 306 307 308 309 309 308 308 308 309 310 310 310 311 312 313 313 314 314 315 315 316 316 317 317 318 318 318 318
Height
5893 5891 5890 5889 5888 5886 5885 5885 5884 5884 5883 5883 5883 5883 5882 5882 5882 5882 5882 5883 5883 5883 5883 5883 5882 5882 5881 5880 5879 5878 5877 5876 5875 5874 5873 5872 5871 5869 5868 5867 5866 5865 5863
5891 5890 5889 5888 5887 5885 5884 5883 5883 5882 5881 5881 5880 5880 5880 5879 5879 5879 5879 5879 5878 5878 5878 5877 5877 5876 5875 5874 5873 5872 5871 5869 5868 5867 5866 5865 5863 5862 5861 5860 5858 5857 5855
5889 5888 5887 5886 5885 5884 5883 5882 5881 5880 5879 5878 5877 5877 5877 5876 5876 5875 5875 5874 5874 5873 5872 5872 5871 5870 5868 5867 5866 5865 5864 5862 5861 5860 5859 5857 5856 5855 5853 5852 5850 5848 5847
5887 5886 5885 5884 5883 5882 5881 5880 5879 5878 5877 5876 5875 5874 5873 5873 5872 5871 5870 5869 5868 5867 5867 5866 5864 5863 5862 5860 5859 5858 5856 5855 5854 5852 5851 5850 5848 5847 5845 5844 5842 5840 5839
5885 5883 5882 5881 5880 5880 5879 5877 5876 5875 5874 5873 5872 5871 5870 5869 5868 5866 5865 5864 5863 5862 5861 5860 5858 5857 5855 5853 5852 5851 5849 5847 5846 5845 5844 5842 5841 5839 5837 5835 5834 5832 5829
5882 5881 5879 5878 5877 5876 5875 5874 5873 5872 5871 5869 5868 5867 5865 5864 5863 5862 5860 5859 5858 5856 5855 5853 5851 5850 5848 5846 5845 5843 5842 5840 5839 5838 5836 5835 5833 5831 5829 5826 5825 5823 5820
5879 5877 5876 5875 5874 5873 5872 5871 5869 5868 5867 5865 5864 5862 5861 5859 5858 5856 5855 5853 5852 5850 5848 5846 5845 5843 5841 5840 5838 5836 5835 5833 5832 5830 5828 5826 5824 5822 5819 5817 5815 5813 5810
5875 5874 5872 5871 5870 5869 5868 5866 5865 5864 5862 5861 5859 5857 5856 5854 5852 5850 5849 5847 5845 5844 5842 5840 5838 5836 5834 5833 5831 5829 5828 5826 5824 5821 5819 5817 5815 5812 5810 5808 5805 5803 5800
5870 5869 5868 5866 5865 5864 5863 5861 5860 5859 5857 5856 5854 5852 5850 5848 5847 5845 5843 5841 5839 5837 5835 5833 5831 5830 5828 5826 5823 5821 5819 5817 5815 5812 5810 5808 5805 5803 5800 5798 5795 5792 5790
5865 5864 5863 5861 5860 5859 5857 5856 5855 5853 5852 5850 5848 5847 5845 5842 5841 5839 5837 5835 5833 5831 5829 5826 5824 5822 5820 5818 5816 5813 5811 5808 5806 5803 5801 5798 5796 5793 5791 5788 5785 5782 5779
5860 5859 5857 5856 5855 5853 5852 5851 5849 5848 5846 5844 5842 5840 5839 5836 5834 5832 5830 5828 5825 5823 5821 5819 5817 5814 5812 5810 5808 5805 5802 5799 5797 5794 5792 5789 5786 5783 5780 5777 5774 5771 5768
5855 5853 5852 5851 5849 5848 5846 5845 5844 5842 5840 5838 5836 5834 5832 5830 5828 5825 5823 5821 5818 5816 5813 5811 5809 5806 5804 5802 5799 5796 5794 5791 5788 5785 5782 5779 5776 5773 5770 5767 5764 5760 5757
5849 5848 5846 5845 5843 5842 5841 5839 5838 5836 5834 5832 5830 5828 5826 5824 5821 5818 5816 5813 5811 5808 5806 5803 5801 5798 5796 5793 5791 5788 5785 5782 5778 5776 5773 5770 5767 5763 5760 5757 5753 5749 5746
5843 5842 5840 5839 5837 5836 5834 5833 5831 5829 5827 5825 5823 5821 5819 5817 5814 5811 5809 5806 5803 5801 5798 5795 5793 5790 5788 5785 5782 5779 5776 5773 5770 5767 5764 5760 5757 5754 5750 5747 5743 5739 5735
5837 5836 5834 5833 5831 5830 5828 5826 5824 5822 5820 5819 5816 5814 5812 5809 5807 5804 5802 5799 5796 5793 5790 5787 5785 5782 5779 5776 5773 5771 5768 5764 5761 5758 5754 5751 5748 5744 5740 5736 5732 5728 5724
5831 5830 5828 5827 5825 5824 5822 5820 5817 5815 5814 5812 5810 5807 5805 5802 5799 5797 5794 5792 5788 5786 5783 5780 5777 5774 5771 5768 5765 5762 5759 5755 5752 5749 5745 5742 5738 5734 5730 5726 5722 5718 5713
5825 5823 5822 5820 5819 5817 5815 5813 5811 5809 5807 5805 5803 5800 5798 5795 5793 5790 5787 5785 5782 5779 5776 5773 5769 5766 5763 5760 5757 5753 5750 5746 5743 5739 5736 5732 5729 5725 5721 5717 5712 5708 5703
5818 5816 5815 5813 5812 5810 5808 5807 5805 5803 5801 5798 5796 5793 5791 5789 5786 5783 5780 5778 5775 5771 5768 5765 5762 5758 5755 5752 5748 5745 5741 5737 5734 5730 5727 5723 5719 5715 5711 5707 5703 5698 5694
5811 5809 5808 5807 5805 5804 5802 5800 5798 5796 5794 5792 5789 5787 5784 5782 5779 5776 5773 5770 5767 5764 5760 5757 5754 5750 5747 5744 5740 5736 5733 5729 5725 5722 5718 5714 5710 5706 5702 5698 5694 5690 5686
5804 5803 5801 5800 5799 5797 5795 5793 5791 5789 5787 5785 5782 5780 5777 5775 5772 5769 5766 5763 5760 5756 5753 5750 5746 5743 5739 5736 5732 5728 5725 5721 5717 5713 5709 5705 5701 5697 5693 5689 5686 5682 5678
5798 5796 5795 5794 5792 5790 5789 5787 5784 5782 5780 5778 5776 5773 5770 5768 5765 5761 5758 5755 5752 5749 5746 5742 5739 5735 5732 5728 5724 5720 5717 5713 5709 5705 5701 5697 5693 5689 5686 5682 5678 5675 5671
5791 5790 5788 5787 5785 5784 5782 5780 5778 5776 5774 5772 5769 5766 5763 5761 5758 5754 5751 5748 5745 5742 5739 5735 5732 5728 5724 5721 5717 5713 5709 5705 5702 5698 5694 5690 5686 5682 5679 5675 5671 5668 5664
5785 5783 5782 5781 5779 5777 5776 5774 5772 5770 5768 5765 5763 5760 5757 5754 5751 5748 5745 5742 5738 5735 5732 5728 5725 5721 5717 5714 5710 5707 5703 5699 5695 5691 5688 5684 5680 5676 5673 5669 5665 5662 5658
5778 5777 5775 5774 5773 5771 5770 5768 5766 5764 5761 5759 5756 5753 5750 5747 5745 5741 5738 5735 5731 5728 5725 5721 5718 5714 5711 5707 5704 5700 5697 5693 5689 5685 5682 5678 5674 5671 5667 5663 5660 5656 5653
5771 5770 5769 5768 5767 5765 5764 5762 5760 5757 5755 5752 5750 5747 5744 5741 5738 5735 5732 5728 5725 5721 5718 5715 5711 5708 5704 5701 5697 5694 5690 5687 5683 5680 5676 5672 5669 5665 5662 5658 5654 5651 5647
5765 5764 5763 5762 5761 5759 5757 5755 5753 5751 5748 5746 5743 5740 5737 5734 5731 5728 5725 5722 5718 5715 5712 5708 5705 5701 5698 5695 5691 5688 5684 5681 5678 5674 5670 5667 5663 5660 5656 5653 5649 5646 5642